Weather Roundup
Issued by NWS Chicago, IL

Home | Current Version | Previous Version | Text Only | Print | Product List | Glossary Off
Versions: 1 2 3 4 5 6 7 8 9 10 11 12 13 14 15 16 17 18 19 20 21 22 23 24 25 26 27 28 29 30 31 32 33 34 35 36 37 38 39 40 41 42 43 44 45 46 47 48 49 50

524
NZUS59 KLOT 230808
HRRLOT

CHICAGO AREA WEATHER ROUNDUP
NATIONAL WEATHER SERVICE CHICAGO/ROMEOVILLE IL
200 AM CST MON JAN 23 2017

NOTE: "FAIR" INDICATES FEW OR NO CLOUDS BELOW 12,000 FEET WITH NO
SIGNIFICANT WEATHER AND/OR OBSTRUCTIONS TO VISIBILITY.

* THESE STATIONS ARE NOT UNDER NWS QUALITY CONTROL. THEY ALSO MAY NOT
  REPORT WEATHER SUCH AS PRECIPITATION OR FOG.

ILZ005-006-012>014-019>023-230900-
NORTHEAST ILLINOIS

CITY           SKY/WX    TMP DP  RH WIND       PRES   REMARKS
OHARE          CLOUDY    38  37  97 NW12      29.69S FOG
MIDWAY         CLOUDY    39  35  86 NW12      29.69S
AURORA         CLOUDY    38  35  89 NW9       29.72R FOG
LANSING*       CLOUDY    37  37 100 N9G18     29.68S
JOLIET*        CLOUDY    41  38  89 NW8       29.70S
WAUKEGAN       CLOUDY    37  36  96 NW6       29.71R FOG
DUPAGE AIRPORT CLOUDY    38  34  85 NW7       29.70S
WHEELING       CLOUDY    37  36  96 NW8       29.72S FOG
KANKAKEE*      CLOUDY    40  37  90 NW10      29.68R
MORRIS*        CLOUDY    38  36  91 N7        29.70S
LEWIS AIRPORT* CLOUDY    39  38  99 N12       29.70S
NORTHERLY ISL    N/A     37  36  96 NW5         N/A
$$

WIZ051-052-058>065-066-070>072-230900-
SOUTHEAST WISCONSIN

CITY           SKY/WX    TMP DP  RH WIND       PRES   REMARKS
MILWAUKEE      CLOUDY    39  36  89 NW6       29.71F
KENOSHA*       CLOUDY    37  35  92 NW8       29.71S FOG
RACINE*        CLOUDY    37  35  92 NW7       29.72S FOG
WAUKESHA       CLOUDY    34  34 100 W6        29.73S FOG     WCI  29
WEST BEND      FOG       36  36 100 NW6       29.71F VSB 1/2
$$

INZ001>003-010>013-019-020-230900-
NORTHWEST INDIANA

CITY           SKY/WX    TMP DP  RH WIND       PRES   REMARKS
GARY*          CLOUDY    38  38 100 N16       29.69R FOG
MICHIGAN CITY* NOT AVBL
RENSSELAER*    NOT AVBL
VALPARAISO     FOG       39  39 100 N13       29.65S VSB 1/2
$$

LMZ740>746-230900-
SOUTHERN LAKE MICHIGAN

STATION/POSITION TIME  SKY/WX   TEMP WIND        PRES    VSBY
                                AIR  DIR/SP/G
                 (UTC)          (F)  (DEG/KT/KT) (MB)    (MI)
HARRISON CRIB    0740            36  340/ 16/ 18   N/A
BURNHAM HARBOR   0800            37  320/ 11/ 14   N/A
CALUMET HARBOR   0742            35  330/ 12/ 17 1004.9F
BURNS HARBOR     0740            36  360/ 14/ 17 1005.4S
MICHIGAN CITY    0740            37  330/ 19/ 20   N/A
$$

ABBREVIATIONS USED IN REMARKS
   TC - TEMPERATURE IN CELSIUS
  WCI - WIND CHILL INDEX
   HX - HEAT INDEX
  VSB - VISIBILITY
$$




USA.gov is the U.S. government's official web portal to all federal, state and local government web resources and services.